Regional Weather Roundup
Issued by NWS

Home | Current Version | Previous Version | Text Only | Print | Product List | Glossary On
Versions: 1 2 3 4 5 6 7 8 9 10 11 12 13 14 15 16 17 18 19 20 21 22 23 24 25 26 27 28 29 30 31 32 33 34 35 36 37 38 39 40 41 42 43 44 45 46 47 48 49 50
000
ASUS43 KMKX 180021
RWRWI

WISCONSIN REGIONAL WEATHER ROUNDUP
NATIONAL WEATHER SERVICE MILWAUKEE/SULLIVAN WI
700 PM CDT THU APR 17 2014

NOTE: "FAIR" INDICATES FEW OR NO CLOUDS BELOW 12,000 FEET WITH NO
SIGNIFICANT WEATHER AND/OR OBSTRUCTIONS TO VISIBILITY.

WIZ001-002-006>008-014>016-023>028-180100-
NORTHWEST WISCONSIN

CITY           SKY/WX    TMP DP  RH WIND       PRES   REMARKS
SUPERIOR ARPT  CLOUDY    38  24  56 N8        30.28S WCI  32
6HR MIN TEMP:  36; 6HR MAX TEMP:  38;

ASHLAND        CLOUDY    35  26  69 VRB7      30.28S WCI  29
6HR MIN TEMP:  33; 6HR MAX TEMP:  38;

HAYWARD        CLOUDY    34  25  69 CALM      30.27S
6HR MIN TEMP:  31; 6HR MAX TEMP:  36;

SIREN          PTCLDY    39  22  51 NE3       30.27F
6HR MIN TEMP:  34; 6HR MAX TEMP:  39; 6HR PCP:  0.03;

RICE LAKE      CLOUDY    35  27  72 N6        30.29F WCI  30
6HR MIN TEMP:  32; 6HR MAX TEMP:  36;

LADYSMITH      CLOUDY    35  28  76 NW6       30.28F WCI  30
6HR MIN TEMP:  34; 6HR MAX TEMP:  36;

EAU CLAIRE     CLOUDY    38  27  64 N6        30.27F WCI  33
6HR MIN TEMP:  37; 6HR MAX TEMP:  42;

MENOMONIE      CLOUDY    40  27  61 N5        30.28F
6HR MIN TEMP:  35; 6HR MAX TEMP:  40;

NEW RICHMOND   PTCLDY    38  26  61 N5        30.28F WCI  35
6HR MIN TEMP:  34; 6HR MAX TEMP:  40;

OSCEOLA        CLEAR     38  26  61 CALM      30.31S
6HR MIN TEMP:  36; 6HR MAX TEMP:  40; 6HR PCP:  0.02;

$$

WIZ003>005-009-010-017-018-180100-
NORTH CENTRAL WISCONSIN

CITY           SKY/WX    TMP DP  RH WIND       PRES   REMARKS
WOODRUFF       CLOUDY    34  30  85 NW5       30.23S WCI  30
6HR MIN TEMP:  34; 6HR MAX TEMP:  39;

RHINELANDER    CLOUDY    33  28  81 W7        30.22S WCI  27
6HR MIN TEMP:  33; 6HR MAX TEMP:  36;

EAGLE RIVER    CLOUDY    33  29  86 NW8       30.21S WCI  25
6HR MIN TEMP:  33; 6HR MAX TEMP:  35;

LAND O LAKES   CLOUDY    33  31  92 W5        30.22S WCI  28
6HR MIN TEMP:  33; 6HR MAX TEMP:  36; 6HR PCP:  0.18;

PHILLIPS       CLOUDY    32  28  84 CALM      30.24F
6HR MIN TEMP:  32; 6HR MAX TEMP:  34;

TOMAHAWK       CLOUDY    33  30  87 CALM      30.24R
6HR MIN TEMP:  33; 6HR MAX TEMP:  37;

MEDFORD        CLOUDY    33  28  81 NW7       30.25R WCI  27
6HR MIN TEMP:  33; 6HR MAX TEMP:  36;

MERRILL        CLOUDY    36  30  79 CALM      30.24S
6HR MIN TEMP:  36; 6HR MAX TEMP:  38;

$$

WIZ029-030-035-036-043>047-180100-
CENTRAL WISCONSIN

CITY           SKY/WX    TMP DP  RH WIND       PRES   REMARKS
WAUSAU         CLOUDY    37  30  75 W9        30.23R WCI  30
6HR MIN TEMP:  37; 6HR MAX TEMP:  41;

MOSINEE        CLOUDY    36  32  87 NW9       30.25R WCI  29
MARSHFIELD     CLOUDY    38  30  73 NW8       30.25R WCI  32
6HR MIN TEMP:  38; 6HR MAX TEMP:  42;

STEVENS POINT  CLOUDY    37  31  79 NW6       30.25S WCI  32
6HR MIN TEMP:  37; 6HR MAX TEMP:  44;

WAUPACA        CLOUDY    45  34  65 NW8       30.25S
WAUTOMA        CLOUDY    43  34  70 NW9       30.26R
6HR MIN TEMP:  43; 6HR MAX TEMP:  55;

WISC RAPIDS    CLOUDY    39  31  72 NW10      30.27R WCI  32
6HR MIN TEMP:  39; 6HR MAX TEMP:  47;

CAMP DOUGLAS   CLOUDY    41  32  72 NW10      30.26S
6HR MIN TEMP:  41; 6HR MAX TEMP:  45;

$$

WIZ011>013-019>022-031-037>040-048>050-180100-
NORTHEAST WISCONSIN

CITY           SKY/WX    TMP DP  RH WIND       PRES   REMARKS
ANTIGO         CLOUDY    35  31  87 NW7       30.22S WCI  29
6HR MIN TEMP:  35; 6HR MAX TEMP:  39;

STURGEON BAY   PTCLDY    39  30  70 N5        30.23R
6HR MIN TEMP:  43; 6HR MAX TEMP:  46;

GREEN BAY      CLOUDY    48  39  71 W8        30.22R
6HR MIN TEMP:  48; 6HR MAX TEMP:  52;

MANITOWOC      CLOUDY    49  38  65 N7        30.21R
6HR MIN TEMP:  45; 6HR MAX TEMP:  53;

APPLETON       MOCLDY    46  36  66 W14       30.22R
CLINTONVILLE   CLOUDY    45  34  65 NW10      30.23R
OSHKOSH        CLOUDY    49  36  61 NW13      30.22R
6HR MIN TEMP:  49; 6HR MAX TEMP:  55;

$$

WIZ032>034-041-042-053>061-180100-
SOUTHWEST WISCONSIN

CITY           SKY/WX    TMP DP  RH WIND       PRES   REMARKS
LA CROSSE      CLOUDY    40  29  64 NW7       30.28S
6HR MIN TEMP:  40; 6HR MAX TEMP:  43;

SPARTA         CLOUDY    40  30  69 NW7       30.29S WCI  35
6HR MIN TEMP:  40; 6HR MAX TEMP:  44;

VIROQUA        CLOUDY    38  32  77 NW7       30.25S WCI  33
6HR MIN TEMP:  38; 6HR MAX TEMP:  46;

BOSCOBEL       CLEAR     48  32  53 W7        30.25R
6HR MIN TEMP:  48; 6HR MAX TEMP:  53;

PRAIRIE DU CHI CLEAR     45  31  58 N8        30.26R
6HR MIN TEMP:  45; 6HR MAX TEMP:  49;

PLATTEVILLE    FAIR      49  35  59 W7        30.23F
6HR MIN TEMP:  49; 6HR MAX TEMP:  53;

$$

WIZ056-057-062-063-064-067-068-180100-
SOUTH CENTRAL WISCONSIN

CITY           SKY/WX    TMP DP  RH WIND       PRES   REMARKS
BARABOO/DELLS  PTCLDY    44  33  64 N6        30.24S
6HR MIN TEMP:  44; 6HR MAX TEMP:  51;

LONE ROCK      PTCLDY    51  35  54 NW12      30.23R
6HR MIN TEMP:  48; 6HR MAX TEMP:  55;

WATERTOWN      MOCLDY    51  37  59 NW6       30.21R
6HR MIN TEMP:  47; 6HR MAX TEMP:  55;

MADISON        MOCLDY    53  36  52 N9        30.22R
6HR MIN TEMP:  49; 6HR MAX TEMP:  56;

MIDDLETON      MOCLDY    54  35  49 NW6       30.22R
6HR MIN TEMP:  51; 6HR MAX TEMP:  56;

MONROE         PTCLDY    52  36  54 W8        30.21R
6HR MIN TEMP:  47; 6HR MAX TEMP:  56;

JANESVILLE     CLEAR     55  36  47 NW7       30.20S
$$

WIZ051-052-058>065-066-070>072-180100-
SOUTHEAST WISCONSIN

CITY           SKY/WX    TMP DP  RH WIND       PRES   REMARKS
MILWAUKEE      MOCLDY    55  36  48 W3        30.22S
6HR MIN TEMP:  51; 6HR MAX TEMP:  56;

WAUKESHA       PTCLDY    52  37  58 W12       30.21S
MILWAUKEE/TIMM CLEAR     54  36  50 W6        30.21S
RACINE         PTCLDY    54  38  54 W5        30.22S
6HR MIN TEMP:  53; 6HR MAX TEMP:  57;

BURLINGTON     PTCLDY    52  38  58 W5        30.21R
6HR MIN TEMP:  50; 6HR MAX TEMP:  54;

KENOSHA        MOCLDY    53  38  56 W7        30.20S
6HR MIN TEMP:  53; 6HR MAX TEMP:  57;

FOND DU LAC    CLOUDY    51  37  58 W10       30.21R
6HR MIN TEMP:  48; 6HR MAX TEMP:  55;

SHEBOYGAN      CLOUDY    52  38  58 NW7       30.19R
6HR MIN TEMP:  49; 6HR MAX TEMP:  54;

WEST BEND      MOCLDY    52  34  50 W6        30.20S
JUNEAU         CLOUDY    49  34  54 NW8       30.22R
6HR MIN TEMP:  45; 6HR MAX TEMP:  54;

$$

LSZ147-162-180100-
LAKE SUPERIOR

STATION/POSITION TIME  TEMP    WIND        PRES    WAVE
                       AIR SEA DIR/SP/G            HT/PER
                 (UTC) (F)     (DEG/KT/KT) (MB)    (FT/S)
DEVILS ISLAND    0000   33     260/  9/ 11 1026.0S
PORT WING        2300   35     280/  4/  5 1025.4R
SAXON HARBOR     2300             CALM     1025.1
$$

LMZ867-665-643>646-180100-
LAKE MICHIGAN

STATION/POSITION TIME  TEMP    WIND        PRES    WAVE
                       AIR SEA DIR/SP/G            HT/PER
                 (UTC) (F)     (DEG/KT/KT) (MB)    (FT/S)
NORTHPORT PIER   2300   39     340/  1/  1 1023.4R
SISTER BAY       2323   39        CALM       N/A
KEWAUNEE LAKESHO 0000   40      20/  3/  5 1023.6R
SHEBOYGAN LAKESH 0000   45     170/ 13/ 14 1023.1R
PORT WASHINGTON  2300   55     260/  7/ 12 1023.0
MILWAUKEE LAKESH 0000          190/  2/  4   N/A
KENOSHA   LAKESH 0000          100/  5/  9   N/A
$$

TC  - TEMPERATURE IN CELSIUS
VSB - VISIBILITY IN STATUTE MILES
WCI - WIND CHILL INDEX
HX  - HEAT INDEX




USA.gov is the U.S. government's official web portal to all federal, state and local government web resources and services.